Terminal Aerodrome Forecast
Issued by NWS Cleveland, OH

Home | Current Version | Previous Version | Graphics & Text | Print | Product List | Glossary Off
Versions: 1 2 3 4 5 6 7 8 9 10 11 12 13 14 15 16 17 18 19 20 21 22 23 24 25 26 27 28 29

000
FTUS41 KCLE 241400 AAB
TAFCLE
TAF AMD
KCLE 241448Z 2415/2518 02013KT P6SM SCT030 BKN050
      TEMPO 2415/2416 BKN030
     FM241800 01012KT P6SM SKC
     FM242000 02006KT P6SM SKC
     FM250100 VRB03KT P6SM SKC=

USA.gov is the U.S. government's official web portal to all federal, state and local government web resources and services.